Regional Weather Roundup
Issued by NWS

Home | Current Version | Previous Version | Text Only | Print | Product List | Glossary On
Versions: 1 2 3 4 5 6 7 8 9 10 11 12 13 14 15 16 17 18 19 20 21 22 23 24 25 26 27 28 29 30 31 32 33 34 35 36 37 38 39 40 41 42 43 44 45 46 47 48 49 50
000
ASUS43 KDMX 301107
RWRIA

WEATHER ROUNDUP FOR IOWA
NATIONAL WEATHER SERVICE DES MOINES IA
600 AM CDT WED JUL 30 2014

NOTE: "FAIR" INDICATES FEW OR NO CLOUDS BELOW 12,000 FEET WITH NO
SIGNIFICANT WEATHER AND/OR OBSTRUCTIONS TO VISIBILITY.

* - THESE STATIONS ARE NOT NWS STATIONS...THUS NOT UNDER NWS
QUALITY CONTROL.  THEY ALSO DO NOT REPORT WEATHER SUCH
AS PRECIPITATION OR FOG.

IAZ001>003-012>014-020>022-031>034-043>046-301200-
   NORTHWEST IOWA

CITY           SKY/WX    TMP DP  RH WIND       PRES   REMARKS
CARROLL *      CLEAR     52  50  93 W7        30.12S
CHEROKEE *     CLEAR     50  50 100 CALM      30.14R
DENISON *      CLEAR     50  50 100 CALM      30.12R
LE MARS *      CLEAR     50  50 100 CALM      30.15R
ORANGE CITY *  CLEAR     55  50  82 CALM      30.14S
SHELDON *      CLEAR     48  48 100 N3        30.13S
SIOUX CITY     CLEAR     51  50  96 CALM      30.15R
SPENCER        CLEAR     49  47  93 NW5       30.13S
STORM LAKE *   CLEAR     57  55  94 NW6       30.14R
$$

IAZ055>058-069>071-079>083-090>094-301200-
   SOUTHWEST IOWA

CITY           SKY/WX    TMP DP  RH WIND       PRES   REMARKS
ATLANTIC *     CLEAR     50  50 100 CALM      30.13R
AUDUBON *      CLEAR     52  48  87 CALM      30.14R
CLARINDA *     CLEAR     50  48  93 CALM      30.14S
COUNCIL BLFS *   N/A     57  57 100 N6        30.13R
CRESTON *      CLEAR     55  54  94 NW5       30.12S
HARLAN  *      CLEAR     50  50 100 CALM      30.17R FOG
LAMONI         PTCLDY    56  52  86 NW3       30.11R
RED OAK *      PTCLDY    52  50  93 CALM      30.13S
SHENANDOAH *   FOG       52  52 100 CALM      30.14S VSB 1/4
$$

IAZ047>049-059>061-072>074-084-301200-
   CENTRAL IOWA

CITY           SKY/WX    TMP DP  RH WIND       PRES   REMARKS
AMES           CLEAR     55  53  93 CALM      30.09S
ANKENY *       CLEAR     54  52  94 CALM      30.10S
CHARITON *     CLEAR     55  54  94 W5        30.10S
DES MOINES     PTCLDY    59  54  83 NW3       30.10R
GRINNELL*      CLEAR     57  54  88 NW5       30.09S
KNOXVILLE *    CLEAR     55  54  94 W7        30.08S
MARSHALLTOWN   CLEAR     54  53  97 W7        30.08R
PELLA *        CLEAR     57  55  94 W5        30.10S
PERRY *          N/A     54  52  94 W6        30.11S
$$

IAZ004>006-015-016-023>025-035-036-301200-
   NORTH CENTRAL IOWA

CITY           SKY/WX    TMP DP  RH WIND       PRES   REMARKS
ALGONA *       CLEAR     57  54  88 NW6       30.11S
CLARION *      CLEAR     52  52 100 CALM      30.10S
ESTHERVILLE    CLEAR     54  52  93 NW7       30.12R
FORT DODGE *   CLEAR     55  52  88 NW5       30.11R
MASON CITY     CLEAR     54  52  93 W6        30.10S
FOREST CITY *  CLEAR     54  54 100 NE5       30.10S
IOWA FALLS *     N/A     55  54  94 NW5       30.10S
$$

IAZ007>011-017>019-026>030-037>042-050>054-066-301200-
   NORTHEAST IOWA

CITY           SKY/WX    TMP DP  RH WIND       PRES   REMARKS
CEDAR RAPIDS   CLEAR     54  51  90 W3        30.06S
CHARLES CITY * CLEAR     54  52  94 W6        30.08S
CLINTON *      CLOUDY    57  55  94 N3        30.08S
DECORAH *      CLEAR     57  57 100 CALM      30.06S
DUBUQUE        PTCLDY    57  55  93 CALM      30.06R
MONTICELLO *   PTCLDY    55  55 100 CALM      30.05S
OELWEIN *      PTCLDY    55  54  94 W5        30.08R
WATERLOO       CLEAR     56  54  93 NW5       30.06S
$$

IAZ064-065-067-068-078-301200-
   EAST CENTRAL IOWA

CITY           SKY/WX    TMP DP  RH WIND       PRES   REMARKS
DAVENPORT      PTCLDY    54  52  93 W3        30.06R
IOWA CITY      CLEAR     58  56  93 SW3       30.08R
MT. PLEASANT * CLEAR     55  54  94 SW5       30.08R
MUSCATINE *    CLEAR     57  55  94 CALM      30.06S
QUAD CITIES    CLEAR     56  53  90 CALM      30.05R
$$

IAZ062-063-075>077-085>089-095>099-301200-
   SOUTHEAST IOWA

CITY           SKY/WX    TMP DP  RH WIND       PRES   REMARKS
BURLINGTON     CLEAR     57  55  93 CALM      30.07R
FAIRFIELD *    CLEAR     55  55 100 W5        30.08S
FORT MADISON * CLEAR     59  57  94 CALM      30.08R
KEOKUK *       CLEAR     57  57 100 W3        30.06S
OSKALOOSA *      N/A     55  54  94 W6        30.09R
CENTERVILLE *  CLEAR     55  55 100 W3        30.11R
OTTUMWA        CLEAR     56  55  97 W3        30.08R
WASHINGTON *   CLEAR     54  54 100 CALM      30.07S
$$

ABBREVIATIONS USED IN REMARKS
   TC - TEMPERATURES IN CELSIUS
  WCI - WIND CHILL INDEX
   HX - HEAT INDEX
  VSB - VISIBILITY
$$



USA.gov is the U.S. government's official web portal to all federal, state and local government web resources and services.